Regional Weather Roundup
Issued by NWS

Home | Current Version | Previous Version | Graphics & Text | Print | Product List | Glossary On
Versions: 1 2 3 4 5 6 7 8 9 10 11 12 13 14 15 16 17 18 19 20 21 22 23 24 25 26 27 28 29 30 31 32 33 34 35 36 37 38 39 40 41 42 43 44 45 46 47 48 49 50
000
ASUS45 KBOU 270407
RWRCO

WEATHER ROUNDUP FOR COLORADO
NATIONAL WEATHER SERVICE DENVER/BOULDER CO
1000 PM MDT TUE AUG 26 2014

NOTE: "FAIR" INDICATES FEW OR NO CLOUDS BELOW 12000 FEET WITH NO
SIGNIFICANT WEATHER AND/OR OBSTRUCTIONS TO VISIBILITY.

COZ001>005-013-030-031-270500-
...NORTHWEST COLORADO...

CITY           SKY/WX    TMP DP  RH WIND       PRES   REMARKS
CRAIG          CLOUDY    60  49  66 N5        30.26R
HAYDEN         CLOUDY    59  46  63 E13       30.28S
MEEKER         CLOUDY    61  49  64 SW12      30.28R
MOUNT WERNER   NOT AVBL
STEAMBOAT SPGS CLOUDY    56  50  80 CALM      30.32S
WALDEN         CLOUDY    54  45  71 SW6       30.38R
$$

COZ006>008-011-270500-
...WEST CENTRAL VALLEYS...

CITY           SKY/WX    TMP DP  RH WIND       PRES   REMARKS
GRAND JUNCTION RAIN      60  56  86 S13       30.25R
MONTROSE       LGT RAIN  60  54  80 S5        30.32R
EAGLE          CLOUDY    61  54  77 CALM      30.33S
RIFLE          CLOUDY    64  54  69 W9        30.23R
DELTA          RAIN      63  57  81 SE5       30.28R
NUCLA          LGT RAIN  55  54  94 E13       30.35S
$$

COZ017>023-064>068-270500-
...SOUTHWEST COLORADO...

CITY           SKY/WX    TMP DP  RH WIND       PRES   REMARKS
DURANGO        LGT RAIN  57  52  83 W12       30.32R
CORTEZ         LGT RAIN  56  55  97 E7        30.34S
PAGOSA SPRINGS RAIN      58  50  76 W3        30.37R
TELLURIDE      RAIN      48  48 100 SW3       30.47R
WOLF CREEK PAS DRIZZLE   41  41 100 W21G26    30.59S
$$

COZ009-010-012-014-032>034-037-058>063-270500-
...CENTRAL COLORADO...

CITY           SKY/WX    TMP DP  RH WIND       PRES   REMARKS
ASPEN          CLOUDY    55  50  83 S6        30.37R
BUENA VISTA    LGT RAIN  54  51  90 W5        30.40S
COPPER MTN     RAIN      45  39  81 NW3       30.63R
BERTHOUD PASS  DRIZZLE   36  36 100 SE9       30.67S
COTTONWOOD PAS LGT RAIN  50  46  87 NW6       30.50S
GUNNISON       CLOUDY    54  48  82 CALM      30.40S
KREMMLING      CLOUDY    54  48  82 CALM      30.38S
LEADVILLE      LGT RAIN  45  44  97 N5        30.50S
MONARCH PASS   CLOUDY    43  41  93 S6        30.71S FOG
SALIDA         NOT AVBL
SUNLIGHT       CLOUDY    46  41  81 CALM      30.55S
WILKERSON PASS NOT AVBL
$$

COZ069>075-270500-
...SAN LUIS VALLEY/SANGRE DE CRISTO MOUNTAINS...

CITY           SKY/WX    TMP DP  RH WIND       PRES   REMARKS
ALAMOSA        MOCLDY    52  49  89 E3        30.34S
LA VETA PASS   NOT AVBL
SAGUACHE       CLOUDY    54  50  87 CALM      30.40S
$$

COZ035-036-038>040-270500-
...NORTHERN COLORADO FRONT RANGE...

CITY           SKY/WX    TMP DP  RH WIND       PRES   REMARKS
DENVER INTL AP CLOUDY    64  55  72 SW10      30.22F
DMNS CITY PARK   N/A     61  54  76 S3G9      30.23S
AURORA         MOCLDY    61  55  78 SW7       30.25F
FRONT RANGE AP CLOUDY    64  59  82 SW9       30.23F
ERIE MUNI ARPT CLOUDY    65  51  61 CALM      30.20F
BOULDER MUN AP DRIZZLE   64  52  63 SW14G21   30.20F
CENTENNIAL     CLOUDY    62  51  67 W7        30.26F
BROOMFIELD     NOT AVBL
FORT COLLINS   CLOUDY    66  54  63 SE7       30.19S
LONGMONT       CLOUDY    64  56  73 CALM      30.21F
$$

COZ041-046-047-076>085-087-088-270500-
...PIKES PEAK/PALMER DIVIDE AND SOUTHERN FOOTHILLS...

CITY           SKY/WX    TMP DP  RH WIND       PRES   REMARKS
COLO. SPRINGS  CLOUDY    64  57  78 SE6       30.30S
A. F. ACADEMY  CLOUDY    63  54  72 VRB1      30.31R
ELLICOTT       CLOUDY    62  55  77 S9        30.29R
FALCON         CLOUDY    60  58  92 CALM      30.34S
FORT CARSON    CLOUDY    65  56  72 SE7       30.28R
LIMON          CLOUDY    65  60  84 S7        30.24R
MONUMENT HILL  CLOUDY    55  50  82 W7        30.34R
TRINIDAD       CLOUDY    62  58  86 SE5       30.26R
$$

COZ042>045-048>051-090-091-270500-
...NORTHEAST COLORADO...

CITY           SKY/WX    TMP DP  RH WIND       PRES   REMARKS
GREELEY ARPT   CLOUDY    66  54  63 S6        30.19S
AKRON          CLOUDY    67  62  84 SE6       30.18S
BURLINGTON     LGT RAIN  65  58  78 SW10      30.19F
WRAY             N/A     72  61  68 S9        30.15S
STERLING       CLOUDY    72  68  88 CALM      30.15R
HOLYOKE        CLOUDY    68  63  83 E8        30.17R
FORT MORGAN    CLOUDY    64  60  89 E6        30.17F
$$

COZ086-089-092>099-270500-
...SOUTHEAST COLORADO...

CITY           SKY/WX    TMP DP  RH WIND       PRES   REMARKS
PUEBLO         MOCLDY    67  55  65 E9        30.20R
LA JUNTA       CLOUDY    66  63  90 E5        30.18R
LAMAR          CLOUDY    67  62  84 SE13      30.15F
SPRINGFIELD      N/A     63  62  97 S20       30.20F
$$


USA.gov is the U.S. government's official web portal to all federal, state and local government web resources and services.